Regional Weather Roundup
Issued by NWS

Home | Current Version | Previous Version | Graphics & Text | Print | Product List | Glossary On
Versions: 1 2 3 4 5 6 7 8 9 10 11 12 13 14 15 16 17 18 19 20 21 22 23 24 25 26 27 28 29 30 31 32 33 34 35 36 37 38 39 40 41 42 43 44 45 46 47 48 49 50
000
ASUS44 KMEG 210110
RWRTN
TENNESSEE HOURLY STATE WEATHER ROUNDUP
NATIONAL WEATHER SERVICE MEMPHIS TN
800 PM CDT MON APR 20 2015

TNZ002-004-019-021-049-052-054-088>092-210200-
WEST TENNESSEE

CITY           SKY/WX    TMP DP  RH WIND       PRES   REMARKS
MEMPHIS INTL   PTCLDY    59  37  44 SW7       29.87R
NWS MEMPHIS      N/A     58 N/A N/A MISG        N/A
JACKSON        CLEAR     56  40  55 W6        29.86R
DYERSBURG      PTCLDY    57  34  41 W8        29.86R
UNION CITY     CLEAR     55  32  41 SW5       29.82R
PARIS            N/A     54  39  58 W3        29.83R
LEXINGTON      CLEAR     55  39  54 CALM      29.84R
SAVANNAH       CLEAR     57  32  38 CALM      29.87R
$$

TNZ008-025-027-028-033-062-065-066-210200-
NORTH MIDDLE TENNESSEE

CITY           SKY/WX    TMP DP  RH WIND       PRES   REMARKS
NASHVILLE      PTCLDY    57  42  57 W3        29.83R
CLARKSVILLE    MOCLDY    57  39  51 W7        29.81R
SMYRNA         CLEAR     54  44  68 W7        29.84R
COOKEVILLE     CLEAR     54  46  76 CALM      29.82R
CROSSVILLE     MOCLDY    53  42  66 W12       29.82R
$$

TNZ061-075-076-078-094-096-097-210200-
SOUTH MIDDLE TENNESSEE

CITY           SKY/WX    TMP DP  RH WIND       PRES   REMARKS
FAYETTEVILLE   PTCLDY    55  43  62 W3        29.85R
TULLAHOMA      PTCLDY    54  45  71 W3        29.85R
WINCHESTER     CLEAR     57  43  58 W5        29.85R
MCMINNVILLE    CLEAR     54  45  71 W3        29.83R
COLUMBIA       CLEAR     57  32  38 W5        29.83R
SHELBYVILLE    PTCLDY    55  46  71 W5        29.85R
$$

TNZ017-018-042-046-047-210200-
NORTHEAST TENNESSEE

CITY           SKY/WX    TMP DP  RH WIND       PRES   REMARKS
TRI CITIES     MOCLDY    62  46  55 W13G22    29.70R
ELIZABETHTON   MOCLDY    63  45  51 W16       29.71R
$$

TNZ012-013-036-069-073-074-210200-
CENTRAL EAST TENNESSEE

CITY           SKY/WX    TMP DP  RH WIND       PRES   REMARKS
KNOXVILLE      MOCLDY    58  48  69 W17G25    29.77R
OAK RIDGE      CLOUDY    59  48  67 W8        29.80R
GATLINBURG     CLOUDY    61  46  59 W9G24     29.75R
MORRISTOWN     MOCLDY    63  45  51 W15       29.75R
$$

TNZ083-085-099-210200-
SOUTHEAST TENNESSEE

CITY           SKY/WX    TMP DP  RH WIND       PRES   REMARKS
CHATTANOOGA    MOCLDY    65  45  48 W12G21    29.81R
$$

SKY/WX REPORTED AS FAIR MEANS FEW OR NO CLOUDS BELOW
12 THOUSAND FEET.




USA.gov is the U.S. government's official web portal to all federal, state and local government web resources and services.